SCP
0 0 0 0 0 0 0 0 0 0 0 1 1 1 2 2 2 1 0 0 0 0 0 0 0 0 0 0 0 0 0 0 0 0 0 0 0 0 0 0 0 0 0
0 0 0 0 0 0 0 0 0 0 0 1 1 1 1 1 2 1 1 0 0 0 0 0 0 0 0 0 0 0 0 0 0 0 0 0 0 0 0 0 0 0 0
0 0 0 0 0 0 0 0 0 0 0 0 0 1 1 1 1 1 1 1 1 0 0 0 0 0 0 0 0 0 0 0 0 0 0 0 0 0 0 0 0 0 0
0 0 0 0 0 0 0 0 0 0 0 0 0 0 0 0 0 1 1 1 1 1 0 0 0 0 0 0 0 0 0 0 0 0 0 0 0 0 0 0 0 0 0
0 0 0 0 0 0 0 0 0 0 0 0 0 0 0 0 0 0 1 1 1 0 0 0 0 0 0 0 0 0 0 0 0 0 0 0 0 0 0 0 0 0 0
0 0 0 0 0 0 0 0 0 0 0 0 0 0 0 0 0 0 0 0 0 0 0 0 0 0 0 0 0 0 0 0 0 0 0 0 0 0 0 0 0 0 0
0 0 0 0 0 0 0 0 0 0 0 0 0 0 0 0 0 0 0 0 0 0 0 0 0 0 0 0 0 0 0 0 0 0 0 0 0 0 0 0 0 0 0
0 0 0 0 0 0 0 0 0 0 0 0 0 0 0 0 0 0 0 0 0 0 0 0 0 0 0 0 0 0 0 0 0 0 0 0 0 0 0 0 0 0 0
0 0 0 0 0 0 0 0 0 0 0 0 0 0 0 0 0 0 0 0 0 0 0 0 0 0 0 0 0 0 0 0 0 0 0 0 0 0 0 0 0 0 0
0 0 0 0 0 0 0 0 0 0 0 0 0 0 0 0 0 0 0 0 0 0 0 0 0 0 0 0 0 0 0 0 0 0 0 0 0 0 0 0 0 0 0
0 0 0 0 0 0 0 0 0 0 0 0 0 0 0 0 0 0 0 0 0 0 0 0 0 0 0 0 0 0 0 0 0 0 0 0 0 0 0 0 0 0 0
0 0 0 0 0 0 0 0 0 0 0 0 0 0 0 0 0 0 0 0 0 0 0 0 0 0 0 0 0 0 0 0 0 0 0 0 0 0 0 0 0 0 0
0 0 0 0 0 0 0 0 0 0 0 0 0 0 0 0 0 0 0 0 0 0 0 0 0 0 0 0 0 0 0 0 0 0 0 0 0 0 0 0 0 0 0
0 0 0 0 0 0 0 0 0 0 0 0 0 0 0 0 0 0 0 0 0 0 0 0 0 0 0 0 0 0 0 0 0 0 0 0 0 0 0 0 0 0 0
0 0 0 0 0 0 0 0 0 0 0 0 0 0 0 0 0 0 0 0 0 0 0 0 0 0 0 0 0 0 0 0 0 0 0 0 0 0 0 0 0 0 0
0 0 0 0 0 0 0 0 0 0 0 0 0 0 0 0 0 0 0 0 0 0 0 0 0 0 0 0 0 0 0 0 0 0 0 0 0 0 0 0 0 0 0
0 0 0 0 0 0 0 0 0 0 0 0 0 0 0 0 0 0 0 0 0 0 0 0 0 0 0 0 0 0 0 0 0 0 0 0 0 0 0 0 0 0 0
0 0 0 0 0 0 0 0 0 0 0 0 0 0 0 0 0 0 0 0 0 0 0 0 0 0 0 0 0 0 0 0 0 0 0 0 0 0 0 0 0 0 0
0 0 0 0 0 0 0 0 0 0 0 0 0 0 0 0 0 0 0 0 0 0 0 0 0 0 0 0 0 0 0 0 0 0 0 0 0 0 0 0 0 0 0
0 0 0 0 0 0 0 0 0 0 0 0 0 0 0 0 0 0 0 0 0 0 0 -0 0 0 0 0 0 0 0 0 0 0 0 0 0 0 0 0 0 0 0
0 0 0 0 0 0 0 0 0 0 0 0 0 0 0 0 0 0 0 0 0 0 0 -0 0 0 0 0 0 0 0 0 0 0 0 0 0 0 0 0 0 0 0
0 0 0 0 0 0 0 0 0 0 0 0 0 0 0 0 0 0 0 0 0 0 0 0 0 0 0 0 0 0 0 0 0 0 0 0 0 0 0 0 0 0 0
0 0 0 0 0 0 0 0 0 0 0 0 0 0 0 0 0 0 0 0 0 0 0 0 0 0 0 0 0 0 0 0 0 0 0 0 0 0 0 0 0 0 0
0 0 0 0 0 0 0 0 0 0 0 0 0 0 0 0 0 0 0 0 0 0 0 0 0 0 0 0 0 0 0 0 0 0 0 0 0 0 0 0 0 0 0
0 0 0 0 0 0 0 0 0 0 0 0 0 0 0 0 0 0 0 0 0 0 0 0 0 0 0 0 0 0 0 0 0 0 0 0 0 0 0 0 0 0 0
0 0 0 0 0 0 0 0 0 0 0 0 0 0 0 0 0 0 0 0 0 0 0 0 0 0 0 0 0 0 0 0 0 0 0 0 0 0 0 0 0 0 0
Wind_Speed
0 0 0 1 1 1 1 2 2 2 2 2 2 2 2 2 2 2 2 3 4 3 3 4 4 3 3 2 2 2 2 3 5 4 3 3 3 4 4 4 4 4 5
0 0 0 1 1 1 1 2 2 2 2 2 2 2 2 2 2 3 3 3 4 4 4 3 4 3 3 3 3 3 3 3 4 6 5 3 4 4 4 4 4 4 4
1 1 1 1 1 1 2 2 2 2 1 1 1 1 2 2 2 3 3 3 3 4 4 4 4 4 4 3 3 3 3 3 3 5 5 3 3 3 4 4 4 4 4
1 1 0 1 1 2 2 2 2 1 1 1 1 2 2 2 3 3 3 3 3 3 3 3 4 4 4 4 4 4 3 3 3 4 5 4 3 3 3 3 4 3 4
1 1 1 1 1 1 2 2 2 1 1 1 1 1 2 2 2 3 3 3 3 3 3 3 3 4 5 4 4 4 3 3 3 4 4 4 4 3 3 3 5 5 5
1 1 1 1 1 2 2 2 2 2 1 1 1 2 2 2 4 4 3 2 3 3 3 3 3 3 4 6 7 6 6 5 5 4 5 6 6 4 4 3 4 5 4
1 0 0 0 1 1 2 2 2 2 2 2 2 2 2 4 5 4 4 3 3 3 3 3 2 2 3 3 5 6 6 7 8 7 7 7 6 5 5 5 5 5 6
0 1 1 1 1 2 2 2 2 2 2 2 2 3 3 3 5 5 4 3 2 3 3 3 3 3 3 4 4 5 5 5 6 5 6 7 6 5 6 6 5 5 5
1 1 1 1 1 1 2 2 2 2 2 2 2 2 2 4 5 5 4 2 2 3 3 3 4 4 6 6 5 5 6 5 6 8 9 9 10 9 7 3 3 3 4
2 2 2 1 1 2 2 2 2 2 2 2 3 2 3 3 5 6 5 2 2 2 2 3 5 6 7 6 5 5 6 5 4 4 5 6 5 5 6 5 4 4 3
1 1 1 1 1 2 1 1 2 2 2 2 3 3 3 3 5 6 6 2 2 3 3 3 3 6 7 7 6 4 6 5 3 3 4 4 3 3 3 3 4 4 5
1 1 1 2 1 1 1 1 2 1 2 2 3 4 3 3 4 5 6 5 4 3 3 3 3 6 6 7 5 5 6 4 2 2 3 3 3 3 3 3 4 4 4
1 1 1 1 1 1 1 1 1 1 1 2 2 3 4 3 4 6 6 7 6 3 3 5 6 6 5 4 4 4 3 2 2 2 3 3 3 3 2 2 2 2 3
0 1 1 1 1 1 1 1 1 1 2 2 2 3 4 4 3 3 3 4 4 4 3 3 4 4 3 3 3 2 2 1 2 3 3 3 2 2 2 2 2 2 2
1 1 1 1 1 1 1 2 2 3 3 3 3 3 3 4 5 6 4 3 2 3 2 1 1 1 1 2 2 2 2 1 2 2 2 2 2 2 2 1 1 1 2
1 1 1 1 1 1 2 3 4 4 5 6 6 5 5 7 9 8 7 7 6 4 1 1 2 1 2 2 2 2 2 2 2 2 2 2 2 2 2 2 1 1 2
2 2 1 1 1 1 1 2 4 5 5 6 7 8 8 9 9 8 8 7 5 3 1 2 2 2 2 2 2 2 2 2 2 2 2 2 2 2 2 2 1 1 2
2 2 2 2 2 2 2 2 2 3 4 5 6 9 9 9 9 8 7 5 3 2 1 2 3 3 2 2 2 2 2 2 2 2 2 2 2 2 2 2 2 2 2
2 2 2 2 2 2 2 2 2 2 3 5 5 6 7 8 8 7 5 2 3 3 3 3 3 3 3 3 3 2 2 2 2 2 2 2 2 2 2 2 2 3 2
2 3 2 2 2 2 2 2 2 2 3 4 4 5 4 3 3 4 3 2 3 4 3 3 3 3 3 3 3 2 2 3 3 3 2 2 2 2 3 3 2 2 2
2 2 2 2 2 2 2 2 2 3 3 4 5 5 6 3 4 4 3 3 3 4 4 4 4 3 3 3 3 3 3 3 3 3 3 2 2 2 2 2 2 2 2
2 2 2 2 2 2 2 2 3 3 4 5 5 5 8 4 4 4 4 4 4 4 4 4 4 4 3 3 3 3 4 4 3 3 3 3 2 2 2 2 2 2 2
2 2 2 2 2 2 3 3 3 3 4 4 5 4 4 4 5 5 5 5 4 4 3 3 4 4 3 3 3 4 5 5 4 4 4 3 3 3 3 3 3 2 2
2 2 2 2 2 2 3 3 3 3 4 4 4 5 5 5 5 6 5 5 4 4 4 4 4 6 6 4 3 4 4 4 4 4 5 4 3 3 3 3 3 3 3
2 2 2 3 3 3 3 3 3 4 4 4 4 5 5 5 5 6 5 5 5 5 5 4 4 5 6 6 5 5 5 6 5 4 4 4 4 4 4 3 3 3 3
2 3 3 2 3 3 3 3 4 4 4 4 5 5 5 5 6 6 5 5 5 5 5 4 5 6 6 5 6 6 6 7 6 6 4 4 4 4 4 3 4 3 3
Wind_Direction
175 207 17 321 314 290 257 255 255 258 247 239 235 229 233 237 229 218 227 207 204 217 221 217 221 213 214 218 221 224 233 230 249 275 276 282 279 284 296 292 286 282 287
189 106 23 347 334 308 288 281 272 261 254 247 243 233 233 237 233 224 231 218 208 216 220 220 229 220 217 217 222 231 234 235 238 266 281 283 280 276 284 291 296 294 284
104 70 27 358 326 308 299 297 285 263 256 248 233 241 246 246 243 238 234 229 223 225 223 219 226 221 226 225 226 234 242 247 243 254 275 283 283 277 287 292 288 288 289
109 102 1 311 301 303 306 303 294 270 255 251 247 248 252 258 254 239 238 229 232 236 235 230 224 224 230 226 231 236 241 245 247 251 266 275 278 277 276 289 299 296 295
143 187 253 297 321 328 327 318 315 310 295 279 266 263 257 254 249 235 238 228 223 237 240 237 236 237 245 245 239 233 236 245 246 253 262 276 278 277 276 282 290 299 295
177 222 279 356 344 334 327 323 328 330 324 319 278 262 259 262 268 264 256 237 231 235 246 249 244 237 249 261 257 249 241 239 245 250 258 258 268 270 277 276 288 298 297
187 239 316 7 325 323 326 329 329 328 330 311 304 285 273 269 271 272 266 248 235 240 241 248 259 255 241 248 260 262 258 256 251 246 250 253 258 257 262 266 262 268 274
42 335 342 359 324 333 335 324 326 330 323 313 311 299 288 286 280 275 276 244 235 240 244 246 252 256 251 261 258 257 259 258 261 255 249 254 256 256 248 254 262 274 282
336 314 313 305 300 311 305 309 318 326 321 315 314 313 304 300 297 290 286 241 245 254 256 254 252 251 259 267 258 257 265 269 275 272 270 269 270 272 271 262 259 267 283
292 303 312 296 275 277 284 306 321 318 314 320 320 317 304 301 305 296 291 256 255 262 263 262 262 264 264 268 255 253 259 269 276 287 285 284 276 270 268 242 233 242 265
321 334 323 306 294 290 309 331 331 329 335 328 317 318 312 300 302 307 296 273 254 261 265 266 266 277 276 278 274 260 267 273 261 264 272 273 267 256 253 250 238 231 241
359 339 321 319 319 324 332 334 342 341 331 324 322 319 317 308 306 307 304 293 285 260 262 264 269 279 285 287 286 282 289 288 266 263 264 269 268 266 271 272 267 259 251
21 314 311 325 333 337 326 317 332 328 306 307 308 307 311 311 304 309 309 305 300 285 272 276 282 283 288 298 310 309 305 285 266 263 265 273 276 274 278 288 295 294 293
210 277 295 306 316 323 312 289 278 273 272 280 285 291 297 301 300 302 300 302 303 299 292 290 294 300 313 322 319 316 303 280 270 266 273 279 285 286 284 293 290 301 309
245 269 287 285 286 295 289 268 265 259 249 259 260 265 281 290 295 301 301 292 280 271 290 297 300 311 321 314 308 306 306 304 294 285 275 277 279 286 293 308 287 296 283
228 263 272 276 279 281 291 302 294 286 291 286 284 284 283 287 300 304 307 307 309 311 302 259 266 267 268 272 277 289 290 289 287 287 278 267 269 275 286 298 289 275 279
219 242 255 259 263 270 276 289 307 314 306 302 303 301 300 303 304 307 310 313 320 335 295 259 260 261 264 269 271 271 274 275 276 272 269 269 271 269 267 270 269 276 279
227 237 237 246 250 254 260 268 276 295 308 310 313 315 315 313 313 315 317 324 321 330 267 262 266 267 263 260 261 267 271 275 269 262 259 258 249 252 259 259 255 254 261
225 236 236 241 245 249 257 267 274 281 287 297 310 319 325 319 322 328 333 316 282 281 272 269 266 267 265 262 260 256 252 254 257 250 244 244 241 241 252 255 252 251 250
233 239 239 234 243 253 260 264 271 276 283 289 294 300 314 325 323 321 320 293 277 274 273 270 266 263 263 260 257 253 251 247 242 240 240 239 235 232 240 247 247 249 250
231 238 233 234 236 242 251 256 261 265 272 279 283 291 301 298 292 288 284 277 269 269 271 271 267 263 257 254 252 250 247 243 237 235 237 233 224 227 234 238 244 245 244
219 223 224 231 240 245 252 255 258 263 270 278 287 298 303 298 288 284 280 278 272 264 263 264 266 261 252 245 241 244 242 238 233 230 232 232 224 222 223 226 233 239 230
212 220 232 240 238 248 257 258 259 263 270 277 283 289 292 286 283 281 280 281 279 274 268 260 261 263 257 247 237 232 235 236 228 217 220 224 223 219 217 220 222 226 228
215 221 231 244 244 243 251 261 263 265 270 275 279 280 280 279 278 279 278 278 278 275 268 258 256 260 264 259 247 238 238 240 229 219 213 212 217 220 217 219 223 222 223
217 224 232 239 243 249 255 262 265 268 270 272 274 277 279 280 280 280 280 278 278 278 275 266 260 260 260 257 250 244 246 249 241 220 208 206 210 214 214 217 218 214 212
221 229 236 239 243 247 251 258 264 267 270 271 272 273 276 278 279 282 284 281 280 278 276 270 265 262 262 258 254 251 247 242 236 225 207 203 205 211 208 212 214 211 205